Regional Weather Roundup
Issued by NWS

Home | Current Version | Previous Version | Graphics & Text | Print | Product List | Glossary On
Versions: 1 2 3 4 5 6 7 8 9 10 11 12 13 14 15 16 17 18 19 20 21 22 23 24 25 26 27 28 29 30 31 32 33 34 35 36 37 38 39 40 41 42 43 44 45 46 47 48 49 50
000
ASUS43 KMKX 261300
RWRWI

WISCONSIN REGIONAL WEATHER ROUNDUP
NATIONAL WEATHER SERVICE MILWAUKEE/SULLIVAN WI
700 AM CST WED NOV 26 2014

NOTE: "FAIR" INDICATES FEW OR NO CLOUDS BELOW 12,000 FEET WITH NO
SIGNIFICANT WEATHER AND/OR OBSTRUCTIONS TO VISIBILITY.

WIZ001-002-006>008-014>016-023>028-261400-
NORTHWEST WISCONSIN

CITY           SKY/WX    TMP DP  RH WIND       PRES   REMARKS
SUPERIOR ARPT  LGT SNOW  18  17  93 CALM      30.15R
ASHLAND        LGT SNOW  19  16  88 SW3       30.14R FOG
HAYWARD        CLOUDY    20  16  84 CALM      30.09R
SIREN          CLOUDY    22  17  83 CALM      30.10R
CUMBERLAND     CLOUDY    21  18  86 NE3       30.08R
RICE LAKE      CLOUDY    22  17  83 CALM      30.10R
CHETEK         CLOUDY    21  17  84 E3        30.09R
LADYSMITH      CLOUDY    21  18  88 E6        30.09F WCI  14
EAU CLAIRE     CLOUDY    21  15  78 E5        30.10R WCI  15
MENOMONIE      CLOUDY    23  17  79 E8        30.09S WCI  13
NEW RICHMOND   CLOUDY    23  15  73 E7        30.08R WCI  14
OSCEOLA        CLOUDY    24  17  74 E3        30.12R
$$

WIZ003>005-009-010-017-018-261400-
NORTH CENTRAL WISCONSIN

CITY           SKY/WX    TMP DP  RH WIND       PRES   REMARKS
MANITOWISH WTR CLOUDY    15  13  95 CALM      30.06S
ARBOR VITAE    CLOUDY    17  15  90 CALM      30.06S
WOODRUFF       CLOUDY    17  15  90 CALM      30.06S
RHINELANDER    CLOUDY    14  11  87 CALM      30.07S
EAGLE RIVER    CLOUDY    13  10  87 CALM      30.07S
LAND O LAKES   CLOUDY    10   7  89 CALM      30.08R
PHILLIPS       CLOUDY    17  15  90 SE3       30.06S
TOMAHAWK       CLOUDY    15  13  90 CALM      30.08S
MEDFORD        CLOUDY    17  15  88 CALM      30.08R
MERRILL        CLOUDY    15  13  94 CALM      30.10R
$$

WIZ029-030-035-036-043>047-261400-
CENTRAL WISCONSIN

CITY           SKY/WX    TMP DP  RH WIND       PRES   REMARKS
WAUSAU         CLOUDY    17  14  88 S6        30.10R WCI   9
MOSINEE        CLOUDY    16  16 100 CALM      30.11
MARSHFIELD     CLOUDY    18  14  84 E6        30.10R WCI  10
STEVENS POINT  CLOUDY    13  11  92 CALM      30.12R
WAUPACA        PTCLDY    11   8  86 CALM      30.14R
WAUTOMA        MOCLDY     7   3  85 CALM      30.14R
WISC RAPIDS    CLOUDY    16  11  80 E3        30.14R
CAMP DOUGLAS   NOT AVBL
$$

WIZ011>013-019>022-031-037>040-048>050-261400-
NORTHEAST WISCONSIN

CITY           SKY/WX    TMP DP  RH WIND       PRES   REMARKS
ANTIGO         CLOUDY    14  13  95 CALM      30.08S
SHAWANO        CLOUDY    16  13  88 CALM      30.15S
OCONTO         CLOUDY    12  11  95 CALM      30.17R
STURGEON BAY   PTCLDY    16  10  79 W5        30.16R WCI   9
GREEN BAY      CLOUDY    14  11  87 N5        30.16S WCI   6
MANITOWOC      NOT AVBL
APPLETON       CLOUDY    18  18 100 CALM      30.13S
CLINTONVILLE   CLOUDY    14  12  92 NE3       30.14S
OSHKOSH        MOCLDY    15  12  88 CALM      30.13S FOG
$$

WIZ032>034-041-042-053>061-261400-
SOUTHWEST WISCONSIN

CITY           SKY/WX    TMP DP  RH WIND       PRES   REMARKS
LA CROSSE      CLOUDY    20  15  81 E8        30.11R WCI  10
SPARTA         CLOUDY    15  14  95 E3        30.12R
VIROQUA        CLOUDY    15  15 100 E8        30.06R WCI   4
BOSCOBEL       CLOUDY    13  10  88 CALM      30.12R
PRAIRIE DU CHI CLOUDY    18  14  85 CALM      30.10R
PLATTEVILLE    MOCLDY    14  12  92 E8        30.08S WCI   3
$$

WIZ056-057-062-063-064-067-068-261400-
SOUTH CENTRAL WISCONSIN

CITY           SKY/WX    TMP DP  RH WIND       PRES   REMARKS
REEDSBURG      FAIR      10   8  92 CALM      30.11R
BARABOO/DELLS  FAIR       8   5  89 CALM      30.11R
LONE ROCK      NOT AVBL
MINERAL POINT  LGT SNOW  18  14  86 SE6       30.07S WCI   9
MADISON        CLOUDY    14  11  87 S7        30.12R FOG     WCI   4
MIDDLETON      CLOUDY    16  13  88 S3        30.12R VSB 1
WATERTOWN      PTCLDY     9   8  93 CALM      30.13S
MONROE         FOG       14  14 100 E3        30.09S VSB 1
JANESVILLE     FOG       16  14  93 E3        30.13S VSB 1/4
$$

WIZ051-052-058>065-066-070>072-261400-
SOUTHEAST WISCONSIN

CITY           SKY/WX    TMP DP  RH WIND       PRES   REMARKS
MILWAUKEE      CLOUDY    16  13  88 VRB3      30.16S FOG
WAUKESHA       CLEAR      7   5  92 SE3       30.15
MILWAUKEE/TIMM NOT AVBL
RACINE         CLOUDY    17  15  92 W5        30.17F FOG     WCI  10
BURLINGTON     CLOUDY    14  13  96 E5        30.15S FOG     WCI   6
KENOSHA        MOCLDY    18  15  88 CALM      30.15F FOG
FOND DU LAC    MOCLDY    11   6  81 S3        30.13F
SHEBOYGAN      CLOUDY    18  15  88 CALM      30.14S
WEST BEND      CLOUDY    18  14  86 CALM      30.14S
JUNEAU         PTCLDY    12  10  92 CALM      30.13S FOG
$$

LSZ147-162-261400-
LAKE SUPERIOR

STATION/POSITION TIME  TEMP    WIND        PRES    WAVE
                       AIR SEA DIR/SP/G            HT/PER
                 (UTC) (F)     (DEG/KT/KT) (MB)    (FT/S)
DEVILS ISLAND    1200   26     360/  7/  8 1021.0R
PORT WING        1200   20     160/  3/  4 1020.3
SAXON HARBOR     1240   19      CALM  /  3 1020.3R
$$

LMZ867-665-643>646-261400-
LAKE MICHIGAN

STATION/POSITION TIME  TEMP    WIND        PRES    WAVE
                       AIR SEA DIR/SP/G            HT/PER
                 (UTC) (F)     (DEG/KT/KT) (MB)    (FT/S)
CHAMBERS ISLAND  1200   21     260/  2/  4 1021.3S
N MID LAKE BUOY  1150   29 42  240/  4/  6 1021.5F   1
NORTHPORT PIER   1206   21     270/  3/  6 1021.0S
SISTER BAY       1158             CALM       N/A
KEWAUNEE LAKESHO 1200   16     310/  2/  3 1019.9F
SHEBOYGAN LAKESH 1200   21 36  290/  4/  5 1022.2F
PORT WASHINGTON  1200   20     250/  6/  8 1022.0S
MILWAUKEE LAKESH 1200   20     290/  4/  5   N/A
S MID LAKE BUOY  1150   29 42   CALM  /  2 1021.7F   1/ 3
KENOSHA   LAKESH 1200   17     280/  7/ 10 1021.7R
$$

TC  - TEMPERATURE IN CELSIUS
VSB - VISIBILITY IN STATUTE MILES
WCI - WIND CHILL INDEX
HX  - HEAT INDEX




USA.gov is the U.S. government's official web portal to all federal, state and local government web resources and services.